Overview Statistics Trail Chart Weather Telemetry Raw packets
 

This is the latest recevied weather packets stored in our database for station/object ALANSN-2. If no packets are shown the sender has not sent any weather packets the latest 10 day(s).

<< 1 2 3 4 5 6 >>
Time Temp. Humidity Pressure Rain* Wind** Luminosity Snow
1788562920 20.56° C 94% 1026.4 hPa 0 mm - 37 W/m² -
1788562619 20.56° C 93% 1026.6 hPa 0 mm - 23 W/m² -
1788562319 20.56° C 93% 1026.6 hPa 0 mm - 23 W/m² -
1788562020 20.56° C 93% 1026.5 hPa 0 mm - 28 W/m² -
1788561719 20.56° C 93% 1026.4 hPa 0 mm - 31 W/m² -
1788561420 20.56° C 93% 1026.4 hPa 0 mm - 31 W/m² -
1788561119 20.56° C 93% 1026.2 hPa 0 mm - 33 W/m² -
1788560819 20.56° C 92% 1026.4 hPa 0 mm - 29 W/m² -
1788560520 20.56° C 92% 1026.4 hPa 0 mm - 29 W/m² -
1788560220 20.56° C 92% 1026.3 hPa 0 mm - 27 W/m² -
1788559920 21.11° C 92% 1026.6 hPa 0 mm - 32 W/m² -
1788559618 21.11° C 92% 1026.6 hPa 0 mm - 32 W/m² -
1788559318 21.11° C 91% 1026.4 hPa 0 mm - 36 W/m² -
1788559020 21.11° C 91% 1026.4 hPa 0 mm - 55 W/m² -
1788558719 21.11° C 91% 1026.4 hPa 0 mm - 55 W/m² -
1788558441 20.56° C 91% 1026.2 hPa 0 mm - 56 W/m² -
1788558117 20.56° C 92% 1026.5 hPa 0 mm - 55 W/m² -
1788557821 20.56° C 92% 1026.5 hPa 0 mm - 55 W/m² -
1788557518 20.56° C 91% 1026.2 hPa 0 mm - 55 W/m² -
1788557221 20.56° C 90% 1026.4 hPa 0 mm - 33 W/m² -
1788556917 20.56° C 90% 1026.4 hPa 0 mm - 33 W/m² -
1788556627 20.56° C 90% 1026.4 hPa 0 mm - 35 W/m² -
1788556318 20.56° C 89% 1026.4 hPa 0 mm - 39 W/m² -
1788556020 20.56° C 89% 1026.4 hPa 0 mm - 39 W/m² -
1788555719 21.11° C 89% 1026.5 hPa 0 mm - 38 W/m² -

* Rain latest hour (hover to see other rain measurements)
** Current wind speed in m/s (hover to see current wind gust speed)